Temp_Advection
nan nan nan nan nan nan nan nan nan nan nan nan nan nan nan nan nan nan nan nan nan nan nan nan nan nan nan nan nan nan nan nan nan nan nan nan nan nan nan nan nan nan nan nan nan nan nan nan nan
nan -0 -0 0 -0 0 -1 0 -0 1 0 -1 -1 -1 -1 -0 -0 -1 -0 0 0 0 -0 -0 -0 -0 -0 -0 -0 -0 0 0 -0 -0 -0 -0 -0 -0 -0 -0 -0 0 0 -0 -0 0 0 0 nan
nan 0 0 0 -0 -0 -0 0 0 1 0 -1 -0 -0 -1 -1 -1 -0 -0 -0 0 0 0 -0 -0 -0 -0 -0 -0 -0 -0 0 0 -0 -0 -0 -0 -0 -0 -0 -0 -0 -0 -0 -0 -0 -0 -0 nan
nan -0 0 -0 -1 -1 -0 -0 -0 0 0 -1 -3 -0 1 -1 -1 -1 0 -0 -0 -0 0 0 -0 -0 -0 -0 -0 -0 -0 0 -0 -0 -0 -0 -0 -0 -0 -0 -0 -0 -0 -0 -0 -0 -0 -0 nan
nan 0 0 -0 -1 -1 -0 0 -0 -0 0 -0 -2 -0 0 1 -0 -0 -0 0 -0 -0 -0 0 0 -0 -0 -0 -0 -0 -0 -0 -0 -0 -0 -0 -0 -0 -0 -0 -0 -0 -0 -0 -0 -0 -0 -0 nan
nan 0 0 -0 -1 -0 0 0 -0 -0 -0 -1 -1 -0 -0 1 0 -0 0 0 0 -0 -0 0 0 0 -0 -0 -0 -0 0 0 -0 -0 -0 0 -0 -0 -0 -0 -0 -0 -0 -0 0 0 -0 -0 nan
nan -0 -0 -0 -1 -1 -0 0 -0 -0 -0 -0 -3 -0 0 0 1 0 0 0 0 0 0 0 0 0 0 0 0 -0 -0 0 0 0 0 0 0 -0 0 -0 -0 -0 0 -0 -0 -0 0 0 nan
nan -0 -0 -0 -1 -0 -0 0 -0 -0 0 -0 -1 -1 -1 -0 0 0 0 1 1 0 0 0 -0 0 0 0 0 0 0 0 0 0 0 0 0 -0 0 0 -0 -0 -0 -0 -0 -0 -0 0 nan
nan 0 -0 -1 -0 -0 0 -0 0 0 -0 -1 -0 -0 -1 -1 -0 -0 -0 0 0 -0 -0 -0 -0 -0 0 0 0 0 0 0 0 0 -0 -0 -0 0 0 -0 0 -0 -0 -0 -0 -0 -0 -0 nan
nan -0 -1 -1 0 0 -0 0 0 -0 -0 -1 -1 0 -0 -0 -0 -0 -1 -1 -2 -2 -1 -1 -0 -1 -0 0 0 0 0 -0 0 0 -0 0 0 0 0 0 0 0 -0 -0 -0 -0 -0 0 nan
nan -1 -1 -2 -0 0 -0 -0 0 -0 -0 -0 -2 -1 -0 -0 -1 -1 -1 -1 -1 -0 -0 -0 -0 -0 -0 -0 0 0 -0 -0 0 0 0 0 0 0 0 0 -0 0 0 -0 -0 -0 0 0 nan
nan -1 -2 -1 -0 -0 0 -1 -1 0 -0 0 0 -1 -1 -1 -1 -1 -1 -0 0 0 -0 0 -0 -0 -0 -0 -0 0 0 0 -0 0 0 0 0 0 0 0 0 0 0 0 0 0 0 0 nan
nan -1 -2 -0 0 0 -0 0 -0 -1 -0 -0 0 0 -1 -1 -1 -1 -1 -0 0 -0 -0 0 -0 -0 0 -0 -0 0 0 0 0 0 0 0 0 0 0 0 0 0 0 0 0 0 0 0 nan
nan -0 -1 -0 -0 -0 0 0 -0 -0 -0 -0 -0 -0 -0 -0 -1 -1 -1 -0 -0 -0 -0 0 0 0 0 0 -0 0 1 1 0 0 0 0 0 1 1 1 0 0 0 0 0 0 0 1 nan
nan 0 -1 -1 -0 -0 0 0 -0 -2 -0 -0 -0 -0 -0 -0 -0 0 -0 -0 0 1 1 0 0 1 0 0 1 1 1 1 0 0 0 0 1 1 1 0 0 0 0 0 0 0 0 0 nan
nan -0 -0 -0 -0 -0 1 1 -1 -2 -0 -0 -0 -0 -0 -0 0 0 0 0 0 0 1 0 1 0 0 0 1 1 1 1 0 0 0 1 1 1 0 0 -0 0 0 0 0 0 0 0 nan
nan -0 -1 -1 -0 1 0 -0 -1 -3 1 -0 -1 -0 -0 0 0 0 0 0 0 0 0 0 0 0 0 0 1 1 2 2 0 1 0 0 0 0 1 0 -0 -0 0 0 0 0 -0 0 nan
nan -0 -0 -1 -1 -0 0 0 -1 -1 0 0 -0 -0 0 0 0 0 0 0 0 0 0 0 0 1 1 1 1 2 2 1 1 0 0 0 0 0 0 -0 -0 -0 0 -0 0 0 0 0 nan
nan 0 -0 -1 -1 -0 1 0 -1 0 0 -1 -1 0 0 0 0 0 0 0 0 0 0 1 1 1 1 1 1 0 -0 0 0 0 0 0 0 0 0 0 -0 0 0 0 0 -0 0 0 nan
nan -0 -0 -1 -1 0 0 -0 -0 -0 -1 -1 -0 -1 -1 -0 0 0 0 0 0 0 0 1 1 1 1 0 1 1 1 2 1 1 0 0 0 0 0 0 -0 0 0 0 0 0 1 1 nan
nan -0 -0 -1 -1 -0 0 0 -0 -0 -0 -1 -1 -0 -0 0 0 0 0 -0 0 1 1 1 0 1 1 1 2 2 1 1 1 0 0 0 0 0 0 0 0 0 0 0 0 0 0 1 nan
nan -1 -0 0 0 -0 -0 0 -0 -0 -0 -1 -1 -1 -1 -0 0 0 0 0 1 1 1 1 1 1 1 1 1 1 1 1 1 0 0 0 -0 0 0 0 0 0 0 1 0 0 0 1 nan
nan -0 0 0 0 -0 1 0 -0 -0 -0 0 -1 -3 -0 1 0 0 0 1 1 2 1 1 1 1 1 1 1 1 2 1 0 0 0 0 0 0 0 0 0 0 1 1 1 1 1 1 nan
nan 1 1 0 0 -0 -0 -0 -0 -0 -1 -1 -1 -2 -1 -0 0 0 1 2 1 1 0 0 0 1 1 1 1 1 1 1 0 0 1 0 0 0 0 1 0 1 1 1 1 0 0 0 nan
nan 0 1 0 -0 -1 -0 -0 -1 -0 -1 -1 -1 -2 -1 0 1 1 2 1 1 0 -0 -0 1 1 1 1 1 1 1 0 -0 0 0 0 -0 0 1 1 0 1 1 -0 -0 0 1 0 nan
nan 1 -0 -0 -1 -1 0 0 -1 -2 -1 -0 -1 -1 1 1 1 1 1 0 0 -0 0 1 1 1 1 1 1 1 1 0 1 1 0 0 1 1 1 1 1 1 0 0 0 1 0 0 nan
nan -1 -0 0 0 0 -0 -1 -1 -1 0 0 -0 2 0 1 1 1 1 1 0 0 0 1 1 1 1 1 1 1 1 1 1 1 0 1 1 2 1 1 0 0 0 0 1 1 1 1 nan
nan 0 1 0 1 -0 -0 -0 -0 -0 -0 0 1 1 1 0 -1 0 1 1 0 0 1 1 1 1 1 1 1 1 1 1 1 0 1 1 1 1 1 0 0 1 0 1 1 0 -0 -0 nan
nan 0 -0 0 0 -0 -1 -1 -1 -1 -0 -0 -0 -1 -0 0 -0 -0 -0 0 0 1 1 1 1 0 2 2 1 1 1 0 0 1 1 1 1 0 0 0 1 1 0 0 -0 -0 -0 -0 nan
nan nan nan nan nan nan nan nan nan nan nan nan nan nan nan nan nan nan nan nan nan nan nan nan nan nan nan nan nan nan nan nan nan nan nan nan nan nan nan nan nan nan nan nan nan nan nan nan nan
Wind_Speed
13 10 9 11 3 4 5 7 5 12 8 25 26 23 14 12 7 9 16 14 11 15 19 19 19 20 20 18 16 14 13 12 13 13 13 14 15 15 15 15 15 15 16 17 18 19 19 19 21
10 6 6 5 3 3 6 3 12 9 12 31 33 28 21 9 22 22 15 11 9 15 19 19 19 20 20 19 16 14 13 12 13 13 12 12 13 14 14 14 14 14 15 17 18 18 20 22 24
9 10 3 3 3 5 3 6 10 12 12 12 12 22 13 16 22 17 12 13 13 18 18 18 19 20 20 19 17 14 13 12 12 13 12 12 12 12 12 13 13 13 15 16 18 19 20 21 23
10 4 6 2 7 9 4 7 15 9 12 9 29 7 22 19 16 19 15 12 12 19 18 17 18 19 20 19 17 15 14 13 12 12 13 12 11 11 11 12 13 13 14 16 17 18 20 22 21
11 7 2 4 8 5 1 7 10 6 7 8 29 8 12 18 19 20 15 13 12 18 19 18 17 18 19 18 17 15 14 13 13 11 11 12 11 11 11 11 12 14 14 15 16 17 17 17 18
8 3 3 5 7 7 3 8 4 7 11 21 18 18 9 20 24 21 17 12 10 14 19 18 18 17 18 17 16 16 15 13 13 12 12 11 11 11 11 12 12 14 14 13 14 14 14 14 16
7 1 5 7 13 8 4 11 5 3 11 6 32 6 22 22 20 22 18 13 11 12 16 19 19 19 18 17 16 16 15 14 13 13 13 12 11 10 11 11 11 12 13 13 13 12 11 11 13
15 3 9 6 8 5 5 5 11 15 7 9 12 6 19 28 22 22 20 16 14 13 14 17 20 20 20 20 18 17 16 15 14 14 14 14 13 12 12 12 12 11 11 12 12 11 9 8 9
19 1 5 7 3 5 6 4 5 8 11 14 12 20 32 28 27 25 23 20 18 16 15 16 22 23 22 21 21 20 18 17 16 16 16 16 15 14 13 13 13 13 11 11 11 11 10 8 7
5 4 10 7 5 3 2 9 5 3 3 19 28 28 29 28 26 26 24 24 21 20 18 19 20 23 25 24 24 23 22 21 20 19 18 17 17 15 15 15 15 14 14 13 12 11 11 9 6
16 9 13 19 8 8 7 4 9 3 2 3 29 32 31 30 28 25 24 18 18 21 22 22 22 23 25 27 27 26 26 25 24 22 21 19 18 18 18 18 17 17 17 15 14 13 11 9 8
6 19 23 23 5 3 5 14 9 10 8 7 3 23 27 28 28 27 26 27 28 28 25 23 24 26 24 27 28 28 28 28 28 26 24 23 22 21 21 20 19 18 17 17 16 15 13 11 9
9 11 23 28 20 5 5 8 9 16 7 9 9 4 24 27 26 25 25 25 31 34 30 26 25 26 27 26 29 30 31 31 30 30 28 26 25 23 21 20 20 18 19 19 18 16 15 14 13
18 19 17 19 13 13 4 7 12 10 10 14 15 17 15 20 21 23 23 23 25 32 35 31 27 24 28 28 27 29 29 30 32 33 32 30 28 26 24 20 20 18 15 17 20 18 15 15 12
22 8 9 6 7 5 10 7 9 22 21 22 21 23 25 25 26 31 25 22 23 25 32 36 30 26 26 28 27 28 28 26 27 35 35 33 31 29 26 23 21 19 17 12 15 11 12 10 12
7 6 7 3 7 14 10 11 13 24 27 30 28 26 24 24 24 24 23 21 20 14 28 32 33 30 26 25 27 29 29 29 27 26 30 33 34 33 30 28 24 22 19 16 14 12 12 15 16
4 6 7 7 15 10 11 13 10 29 28 25 31 29 27 16 23 22 22 21 18 17 17 24 34 32 29 25 25 31 32 32 31 29 28 28 27 31 35 31 27 23 22 20 18 19 19 19 20
6 4 10 10 11 15 20 13 8 21 19 11 15 14 14 16 16 15 21 18 22 20 22 24 26 31 31 28 26 29 37 36 35 34 32 31 30 29 33 34 29 25 27 26 24 24 27 26 24
7 11 12 7 20 8 14 11 12 23 18 15 20 24 28 28 28 26 27 22 26 24 24 29 34 34 35 33 32 31 35 40 38 39 35 34 33 33 33 36 34 32 30 32 30 29 28 29 28
18 16 19 12 13 6 9 11 9 10 9 22 20 26 33 34 32 29 22 26 29 25 27 26 30 29 33 34 31 32 32 37 41 39 41 33 37 36 35 35 39 37 34 32 34 32 30 23 26
17 19 13 12 19 9 3 6 6 7 9 21 26 34 32 34 34 34 26 24 27 31 27 26 25 26 28 32 35 35 32 31 39 41 39 41 36 40 37 36 35 40 41 37 37 35 32 28 30
17 12 12 14 8 9 5 6 7 7 12 15 28 31 42 41 28 25 26 24 29 31 32 31 24 20 21 27 33 37 38 38 37 37 37 37 38 38 41 37 35 35 43 43 39 34 31 29 30
19 9 11 11 7 4 17 3 5 7 10 12 9 21 26 41 32 22 24 31 25 34 31 24 20 19 23 23 32 35 38 37 31 31 32 34 39 41 40 37 36 34 41 45 41 38 36 33 33
18 13 18 11 3 6 14 10 9 11 10 9 17 27 34 30 24 22 25 24 32 28 21 16 15 17 19 27 31 35 37 34 32 31 32 35 36 37 37 38 38 37 37 39 36 32 32 31 28
16 5 8 6 6 15 7 9 18 6 16 20 20 25 19 20 23 20 28 37 31 24 18 13 15 15 15 20 32 31 33 33 35 34 34 33 35 38 40 40 39 35 35 40 38 34 35 34 32
20 14 7 11 12 15 10 12 11 19 31 31 28 36 29 26 23 29 34 29 25 19 15 13 13 15 18 19 22 29 33 31 32 35 35 35 37 40 38 36 32 31 33 32 30 30 29 30 28
26 16 21 12 10 0 6 11 8 21 17 15 22 24 27 30 31 28 24 22 19 17 13 13 13 19 22 25 27 30 32 31 32 33 34 34 35 43 40 37 33 33 31 29 31 30 27 27 26
24 16 15 11 17 20 8 12 7 4 11 17 12 19 29 34 32 26 23 20 16 16 17 17 17 19 21 26 28 28 29 29 30 29 29 29 30 31 35 37 34 33 31 30 25 22 19 19 18
22 19 10 5 10 14 14 15 9 11 5 5 10 17 20 29 27 25 23 22 20 20 19 18 13 15 19 19 20 22 22 23 27 28 27 27 28 29 30 33 33 31 28 23 21 17 15 13 12
28 26 22 12 10 18 19 14 1 13 8 4 2 17 17 24 30 28 29 28 26 23 19 15 10 14 17 18 17 20 21 23 25 25 24 23 23 24 26 28 29 26 23 19 16 14 11 10 10
Wind_Direction
313 305 320 319 33 82 262 313 123 80 54 92 90 92 92 71 94 129 154 186 170 161 162 159 158 156 152 151 153 147 138 132 126 125 125 121 120 122 121 118 116 112 110 112 113 113 112 109 107
326 347 309 275 89 351 268 96 91 105 116 110 105 101 85 85 111 132 150 177 176 167 163 159 158 159 155 153 156 154 146 140 134 130 128 125 125 125 126 122 118 113 113 115 116 112 110 108 108
319 308 304 146 183 204 262 138 122 121 144 103 83 90 96 125 119 149 156 167 159 168 163 159 159 160 157 156 159 158 153 147 141 137 134 133 130 131 131 129 125 122 119 119 116 112 111 108 110
333 313 256 104 253 270 205 146 133 127 115 75 97 56 106 129 130 150 160 157 146 163 162 160 160 161 161 160 162 161 158 153 149 147 142 140 137 136 137 137 131 128 126 124 121 118 117 117 117
311 276 294 237 246 271 311 98 102 134 115 120 121 127 102 126 131 143 154 157 149 157 165 163 163 164 164 164 164 164 161 160 156 155 151 147 145 142 140 141 138 134 133 133 131 126 120 120 125
275 262 347 296 305 224 81 70 57 99 122 127 103 117 117 143 141 147 153 158 155 146 164 168 167 169 169 167 166 167 167 165 163 163 162 159 154 149 147 146 145 141 141 141 139 133 127 122 124
230 64 249 292 292 291 175 146 121 34 56 80 139 118 140 149 146 149 157 172 166 164 166 175 177 174 174 172 171 171 173 172 170 173 170 169 164 162 156 153 153 152 150 151 150 148 140 131 131
265 144 294 270 290 313 199 111 98 88 62 64 122 137 156 157 154 155 162 176 184 187 177 183 185 184 182 179 179 178 179 181 179 181 180 178 176 175 169 165 162 165 163 163 164 162 158 150 140
281 295 274 273 299 320 116 75 40 95 97 82 93 150 156 156 156 160 161 174 192 203 196 189 192 191 190 188 186 186 187 190 190 190 189 188 187 185 181 178 177 175 177 181 182 181 179 176 159
179 146 240 230 1 24 344 115 107 78 120 118 117 133 148 158 166 169 171 180 202 211 210 201 195 198 196 196 196 195 195 197 199 198 197 196 195 196 194 193 190 188 189 192 197 201 198 192 181
253 220 254 276 293 2 355 357 145 144 3 190 152 154 160 166 176 186 196 212 223 215 211 209 201 198 202 203 202 204 204 204 205 206 205 203 202 202 204 204 204 202 202 204 207 209 212 208 195
261 263 247 272 238 121 325 331 343 156 220 289 18 191 172 177 183 197 207 221 215 217 215 211 205 203 203 209 209 211 212 212 213 212 211 209 208 207 211 214 212 214 216 215 216 217 221 219 213
268 266 260 267 272 191 166 293 291 300 296 266 285 207 188 193 198 204 212 224 231 218 220 213 210 208 205 215 210 215 218 219 220 219 217 216 217 213 218 218 219 220 225 227 224 226 224 226 210
277 285 283 254 291 290 235 233 261 257 278 263 258 260 244 210 206 214 221 233 229 232 225 220 213 213 208 210 222 215 218 223 225 225 224 220 221 222 219 224 224 223 228 236 234 232 225 220 217
278 284 299 279 289 283 283 296 250 263 260 255 239 244 242 236 238 241 240 242 246 243 230 224 218 216 212 208 223 222 217 219 225 227 229 225 222 220 220 226 232 230 235 230 221 221 215 218 230
313 301 262 231 272 267 248 261 253 256 253 244 239 244 257 227 228 242 245 247 240 232 217 224 222 219 217 216 219 227 226 231 230 223 224 228 225 220 217 222 230 227 232 230 216 220 214 230 234
278 247 278 287 243 246 200 243 234 248 265 269 227 234 245 238 233 231 231 243 231 232 218 225 222 221 221 221 222 220 226 229 236 233 227 227 220 218 219 222 224 229 227 227 220 214 215 225 230
221 238 250 245 256 232 247 223 233 240 262 234 207 229 247 252 244 233 232 224 229 217 225 222 232 226 223 226 226 216 215 221 228 232 232 233 232 216 216 217 221 224 221 224 228 228 227 230 228
247 245 249 253 248 247 246 201 216 232 248 241 223 225 236 236 241 248 241 247 222 219 224 230 220 222 216 221 225 221 218 219 221 228 229 227 231 230 220 220 216 219 221 228 228 230 234 228 225
243 256 264 286 279 250 255 215 212 215 236 258 247 238 236 235 237 238 235 249 221 220 226 226 215 221 223 228 236 235 233 227 225 223 227 226 228 231 227 224 223 218 223 222 228 234 237 232 223
238 234 249 252 286 284 307 292 254 258 237 250 256 255 255 254 247 233 229 236 238 226 214 192 191 205 227 233 229 229 232 234 222 225 229 225 228 231 232 229 227 221 221 227 225 229 233 234 224
243 242 242 252 262 265 93 278 267 255 248 253 253 251 248 245 241 226 224 234 244 226 210 208 214 216 212 229 233 232 232 231 230 230 231 224 224 226 232 232 230 227 222 225 225 232 237 233 232
248 246 242 246 242 253 275 279 236 248 272 274 260 264 253 238 237 226 227 234 230 206 202 212 226 240 228 225 234 234 231 230 235 229 228 226 225 231 230 232 231 230 227 227 231 231 232 234 240
233 238 259 277 230 248 241 222 253 232 230 263 275 273 257 221 223 227 233 212 194 190 200 215 245 257 234 227 225 232 230 224 220 227 220 222 225 227 227 232 231 231 230 229 228 228 229 235 244
236 208 227 247 237 241 192 254 245 243 224 240 248 256 239 202 200 199 187 174 185 194 205 230 258 248 238 224 221 226 226 223 226 229 224 218 222 226 224 228 230 230 226 225 225 227 227 230 235
231 219 198 211 224 244 243 249 238 220 237 245 245 255 222 183 177 175 172 176 184 197 216 234 249 237 232 231 223 222 225 226 239 229 233 232 233 230 230 227 236 232 226 221 221 222 225 224 233
232 232 228 242 270 191 238 267 275 247 250 238 231 160 139 150 163 167 176 191 195 214 238 244 257 238 230 228 226 224 226 229 231 234 242 239 239 236 235 233 235 229 221 219 222 224 225 228 234
219 224 216 218 225 237 240 258 238 266 241 229 195 173 165 160 151 155 175 183 200 228 237 244 249 236 231 231 231 231 231 231 231 233 232 235 235 237 231 229 226 220 217 220 222 219 214 221 232
221 228 219 208 213 222 246 251 225 266 286 3 238 200 173 166 172 180 187 193 211 218 228 240 238 242 237 230 226 227 227 228 222 231 236 238 237 230 223 218 217 216 216 210 210 214 215 213 219
220 223 220 212 224 215 224 239 128 219 233 352 240 183 179 181 179 184 193 194 202 208 223 240 246 249 231 229 229 224 226 223 227 230 230 228 220 217 212 209 208 209 202 205 196 195 201 203 207
Height
1517 1516 1514 1512 1524 1521 1522 1504 1486 1491 1494 1493 1494 1497 1506 1508 1513 1533 1526 1528 1528 1530 1532 1535 1538 1540 1542 1545 1548 1550 1551 1553 1553 1555 1557 1559 1560 1561 1562 1563 1564 1565 1566 1567 1569 1570 1572 1574 1575
1517 1515 1513 1512 1527 1533 1525 1494 1497 1492 1491 1495 1497 1501 1504 1515 1514 1520 1524 1527 1529 1530 1533 1535 1538 1540 1542 1545 1548 1551 1552 1553 1555 1557 1559 1560 1562 1563 1564 1565 1567 1568 1569 1570 1571 1572 1574 1576 1577
1516 1515 1514 1516 1524 1530 1519 1493 1490 1488 1493 1494 1500 1500 1507 1515 1517 1520 1523 1525 1528 1530 1533 1536 1537 1540 1543 1545 1548 1551 1553 1555 1556 1558 1559 1561 1563 1565 1566 1567 1568 1569 1570 1571 1573 1575 1576 1578 1580
1516 1515 1514 1521 1522 1506 1496 1489 1483 1488 1492 1494 1498 1505 1509 1513 1514 1517 1522 1525 1528 1530 1533 1536 1538 1541 1543 1545 1548 1550 1553 1555 1558 1559 1560 1561 1563 1565 1567 1568 1569 1570 1572 1573 1574 1576 1578 1579 1581
1517 1515 1520 1519 1511 1498 1487 1481 1482 1488 1490 1492 1497 1508 1510 1513 1514 1517 1521 1524 1526 1529 1532 1536 1538 1541 1543 1546 1548 1551 1553 1555 1557 1560 1562 1563 1564 1566 1568 1569 1571 1572 1574 1575 1576 1578 1580 1581 1582
1519 1513 1527 1529 1511 1491 1486 1485 1484 1487 1489 1493 1500 1506 1512 1514 1512 1516 1520 1523 1526 1529 1532 1536 1539 1541 1544 1546 1549 1551 1553 1556 1558 1560 1561 1563 1565 1567 1568 1570 1572 1574 1576 1577 1579 1580 1581 1583 1584
1517 1521 1525 1520 1511 1503 1487 1484 1485 1486 1491 1493 1497 1504 1514 1516 1515 1515 1518 1522 1524 1527 1530 1534 1537 1540 1543 1546 1549 1551 1553 1556 1558 1559 1561 1563 1565 1567 1569 1571 1573 1575 1576 1578 1580 1581 1582 1584 1585
1513 1517 1519 1514 1510 1503 1486 1484 1485 1486 1493 1494 1497 1502 1510 1513 1515 1517 1519 1521 1524 1527 1529 1532 1536 1539 1541 1544 1547 1550 1553 1554 1557 1559 1561 1562 1564 1566 1569 1571 1573 1576 1577 1579 1580 1581 1583 1584 1585
1511 1521 1526 1516 1503 1496 1487 1487 1487 1489 1492 1495 1497 1499 1505 1512 1515 1518 1520 1522 1524 1526 1528 1530 1533 1536 1539 1542 1545 1548 1550 1553 1555 1557 1559 1562 1563 1565 1568 1570 1572 1573 1577 1579 1580 1581 1582 1583 1584
1508 1520 1513 1499 1496 1495 1490 1489 1490 1492 1493 1497 1499 1502 1507 1511 1513 1515 1517 1520 1522 1523 1524 1526 1529 1532 1536 1539 1542 1544 1547 1550 1553 1555 1557 1560 1562 1564 1566 1568 1569 1572 1573 1576 1578 1580 1581 1583 1584
1503 1510 1498 1495 1498 1494 1492 1490 1491 1492 1494 1497 1496 1499 1502 1506 1509 1511 1513 1514 1514 1516 1519 1520 1523 1527 1531 1535 1538 1541 1544 1546 1549 1552 1555 1557 1560 1561 1564 1566 1568 1569 1571 1573 1576 1579 1581 1582 1584
1504 1496 1494 1492 1495 1493 1493 1493 1493 1490 1492 1495 1499 1500 1500 1503 1505 1506 1508 1507 1510 1511 1514 1517 1520 1522 1525 1530 1534 1537 1539 1542 1545 1548 1551 1554 1556 1559 1560 1563 1565 1568 1570 1571 1573 1575 1578 1580 1582
1497 1493 1490 1488 1489 1491 1490 1492 1492 1491 1492 1492 1495 1499 1499 1500 1501 1503 1504 1504 1503 1506 1509 1513 1515 1518 1521 1523 1528 1532 1535 1538 1541 1544 1547 1551 1553 1556 1557 1560 1563 1564 1567 1569 1570 1573 1575 1577 1580
1492 1490 1487 1484 1484 1486 1487 1488 1490 1489 1489 1490 1493 1494 1496 1497 1499 1500 1502 1503 1503 1500 1503 1506 1510 1513 1516 1518 1521 1526 1530 1534 1537 1540 1542 1547 1549 1552 1554 1557 1559 1562 1563 1566 1568 1570 1572 1576 1578
1490 1491 1485 1482 1481 1485 1485 1488 1486 1485 1486 1486 1488 1489 1490 1492 1494 1494 1497 1498 1500 1497 1498 1500 1505 1508 1512 1514 1517 1520 1525 1529 1532 1535 1538 1542 1545 1548 1551 1553 1556 1558 1561 1563 1564 1566 1569 1571 1572
1494 1488 1497 1483 1482 1482 1487 1496 1480 1481 1481 1480 1482 1483 1484 1485 1487 1489 1491 1493 1495 1494 1494 1497 1500 1504 1507 1510 1512 1515 1519 1523 1527 1530 1533 1536 1541 1545 1547 1550 1551 1555 1557 1561 1564 1565 1566 1568 1570
1496 1506 1495 1490 1480 1483 1484 1489 1475 1474 1475 1473 1475 1477 1480 1481 1481 1483 1486 1488 1490 1490 1492 1493 1495 1498 1502 1505 1507 1510 1513 1517 1520 1524 1527 1531 1536 1539 1543 1545 1550 1553 1555 1555 1558 1561 1564 1566 1568
1507 1501 1498 1494 1479 1476 1477 1480 1469 1467 1469 1469 1470 1472 1474 1475 1477 1480 1482 1483 1485 1486 1487 1489 1490 1493 1496 1500 1503 1506 1508 1512 1516 1518 1522 1525 1528 1534 1538 1541 1544 1549 1551 1554 1557 1559 1560 1562 1564
1489 1491 1492 1481 1468 1474 1472 1470 1465 1462 1464 1465 1466 1466 1467 1469 1471 1474 1476 1479 1480 1481 1481 1483 1484 1487 1492 1494 1496 1500 1503 1507 1512 1515 1518 1521 1524 1528 1532 1535 1540 1544 1545 1547 1550 1553 1556 1556 1557
1487 1489 1483 1477 1465 1468 1466 1465 1459 1457 1457 1457 1459 1462 1461 1462 1465 1466 1470 1473 1475 1476 1476 1477 1481 1484 1487 1489 1491 1494 1498 1501 1504 1510 1514 1518 1521 1522 1526 1529 1533 1538 1541 1542 1542 1545 1548 1552 1554
1479 1481 1481 1480 1465 1462 1464 1473 1463 1455 1452 1453 1452 1452 1454 1454 1457 1459 1463 1467 1470 1471 1471 1472 1475 1479 1482 1484 1487 1490 1494 1497 1501 1503 1507 1511 1514 1518 1522 1525 1527 1531 1534 1536 1538 1541 1544 1546 1548
1478 1467 1470 1472 1478 1488 1464 1494 1465 1455 1450 1446 1443 1444 1444 1445 1449 1451 1455 1460 1463 1464 1466 1470 1472 1474 1478 1480 1481 1482 1484 1486 1490 1495 1500 1505 1508 1511 1514 1519 1522 1525 1526 1529 1533 1536 1538 1541 1542
1461 1465 1465 1467 1473 1474 1467 1488 1465 1452 1452 1445 1439 1435 1432 1434 1441 1444 1448 1452 1455 1458 1460 1464 1469 1472 1474 1475 1476 1478 1479 1481 1485 1490 1494 1498 1503 1505 1509 1513 1516 1518 1519 1522 1527 1530 1532 1534 1535
1455 1461 1463 1466 1475 1490 1466 1477 1463 1455 1448 1442 1433 1428 1426 1429 1435 1439 1441 1445 1450 1454 1457 1462 1464 1467 1469 1470 1472 1473 1474 1479 1482 1485 1488 1492 1496 1500 1505 1508 1510 1512 1515 1519 1522 1525 1528 1530 1532
1452 1466 1484 1491 1489 1472 1459 1469 1446 1437 1433 1432 1427 1422 1423 1425 1428 1432 1434 1441 1446 1449 1454 1457 1460 1461 1462 1464 1466 1469 1472 1475 1477 1480 1482 1487 1490 1493 1497 1501 1504 1505 1509 1512 1515 1518 1520 1522 1524
1444 1454 1480 1490 1481 1465 1459 1456 1438 1425 1423 1419 1417 1416 1416 1420 1422 1428 1432 1436 1441 1446 1450 1454 1456 1457 1459 1460 1462 1465 1469 1472 1474 1476 1479 1482 1485 1488 1493 1495 1499 1500 1503 1506 1509 1511 1514 1516 1519
1437 1448 1436 1459 1458 1473 1461 1436 1424 1417 1416 1414 1413 1410 1410 1415 1420 1424 1429 1433 1438 1443 1447 1451 1453 1454 1455 1457 1459 1460 1463 1466 1467 1470 1474 1477 1480 1483 1485 1489 1493 1495 1496 1499 1503 1504 1507 1510 1513
1424 1428 1449 1448 1470 1477 1457 1446 1441 1415 1412 1406 1406 1404 1408 1411 1416 1421 1425 1429 1434 1439 1444 1447 1449 1450 1452 1453 1455 1456 1457 1460 1463 1465 1468 1471 1474 1476 1479 1483 1486 1489 1493 1495 1497 1500 1502 1506 1508
1421 1424 1426 1430 1440 1460 1464 1437 1417 1415 1410 1406 1405 1403 1406 1409 1413 1417 1421 1426 1431 1435 1440 1443 1444 1445 1447 1448 1451 1452 1453 1456 1459 1461 1463 1465 1469 1472 1476 1479 1482 1485 1488 1490 1493 1496 1498 1500 1502
1403 1408 1414 1429 1439 1427 1431 1428 1395 1401 1404 1401 1400 1401 1404 1408 1411 1413 1417 1421 1426 1430 1435 1437 1439 1441 1443 1445 1448 1450 1452 1454 1456 1457 1459 1462 1463 1468 1473 1476 1480 1482 1485 1488 1491 1493 1496 1497 1498